AS428 Weather Reports


Display with metric or nautical units.
time (UTC)temp
F
wind
direction
speed
MPH
gust
MPH
rain 1hr
in
rain 24hr
in
rain mn
in
humidity
%
barometer
mb
20260504012037 60 204 4.0 6.0 0.00 0.00 0.00 50 1014.2
20260504011035 60 197 2.0 3.0 0.00 0.00 0.00 50 1014.4
20260504010037 60 225 1.0 4.0 0.00 0.00 0.00 49 1014.7
20260504005135 61 190 2.0 4.0 0.00 0.00 0.00 48 1014.7
20260504003237 61 220 2.0 3.0 0.00 0.00 0.00 47 1015.0
20260504002236 61 202 1.0 2.0 0.00 0.00 0.00 47 1014.9
20260504001238 61 255 2.0 4.0 0.00 0.00 0.00 47 1014.9
20260504000336 62 233 1.0 2.0 0.00 0.00 0.00 47 1014.9
20260503234337 62 236 4.0 8.0 0.00 0.00 0.00 45 1014.8
20260503233336 62 232 5.0 9.0 0.00 0.00 0.00 44 1014.4
20260503232335 63 239 3.0 6.0 0.00 0.00 0.00 45 1014.4
20260503231337 63 240 6.0 7.0 0.00 0.00 0.00 45 1014.4
20260503230436 63 232 1.0 3.0 0.00 0.00 0.00 45 1014.4
20260503225438 63 236 4.0 5.0 0.00 0.00 0.00 44 1014.4
20260503224536 63 231 4.0 12.0 0.00 0.00 0.00 45 1014.6
20260503222635 63 194 2.0 6.0 0.00 0.00 0.00 44 1014.7
20260503221637 63 209 4.0 7.0 0.00 0.00 0.00 45 1014.8
20260503220735 63 256 5.0 8.0 0.00 0.00 0.00 44 1015.1
20260503214836 63 205 6.0 10.0 0.00 0.00 0.00 43 1015.3
20260503213836 63 215 3.0 5.0 0.00 0.00 0.00 42 1015.5
20260503211837 63 234 5.0 10.0 0.00 0.00 0.00 42 1015.8
20260503205935 63 215 5.0 7.0 0.00 0.00 0.00 42 1016.6
20260503204937 63 223 3.0 6.0 0.00 0.00 0.00 41 1016.9
20260503203938 62 244 5.0 9.0 0.00 0.00 0.00 41 1017.1
20260503201936 63 219 7.0 11.0 0.00 0.00 0.00 42 1016.9
20260503200938 62 233 3.0 8.0 0.00 0.00 0.00 41 1017.2
20260503200837 62 237 5.0 9.0 0.00 0.00 0.00 42 1017.3
20260503195836 62 227 5.0 9.0 0.00 0.00 0.00 41 1017.1
20260503194836 62 208 3.0 5.0 0.00 0.00 0.00 42 1017.7
20260503191934 61 247 7.0 10.0 0.00 0.00 0.00 41 1018.1
20260503190937 61 224 5.0 9.0 0.00 0.00 0.00 41 1018.2
20260503185936 61 213 4.0 10.0 0.00 0.00 0.00 41 1018.5
20260503185035 61 238 6.0 11.0 0.00 0.00 0.00 41 1018.5
20260503184037 61 197 4.0 9.0 0.00 0.00 0.00 42 1018.9
20260503183038 61 267 5.0 7.0 0.00 0.00 0.00 41 1019.2
20260503182038 61 236 6.0 8.0 0.00 0.00 0.00 42 1019.4
20260503180037 61 197 2.0 4.0 0.00 0.00 0.00 42 1019.8
20260503175038 61 279 2.0 5.0 0.00 0.00 0.00 42 1020.0
20260503174136 60 261 6.0 11.0 0.00 0.00 0.00 42 1020.2
20260503173136 60 242 4.0 5.0 0.00 0.00 0.00 42 1020.2
20260503172137 60 235 4.0 6.0 0.00 0.00 0.00 41 1020.3
20260503171137 60 238 5.0 10.0 0.00 0.00 0.00 40 1020.5
20260503170234 60 263 5.0 10.0 0.00 0.00 0.00 42 1020.4
20260503170136 60 236 4.0 7.0 0.00 0.00 0.00 42 1020.4
20260503150535 56 216 3.0 5.0 0.00 0.00 0.00 47 1022.0
20260503130638 44 247 2.0 4.0 0.00 0.00 0.00 79 1022.0
20260503090136 33 22 0.0 0.0 0.00 0.00 0.00 94 1019.9
20260503081337 33 22 0.0 0.0 0.00 0.00 0.00 94 1019.8
20260503081237 33 22 0.0 0.0 0.00 0.00 0.00 95 1019.9
20260503080236 33 22 0.0 0.0 0.00 0.00 0.00 95 1019.8
20260503072236 34 22 0.0 0.0 0.00 0.00 0.00 94 1019.8
20260503071237 34 22 0.0 0.0 0.00 0.00 0.00 92 1019.8
20260503070236 34 22 0.0 0.0 0.00 0.00 0.00 93 1020.0
20260503070136 34 22 0.0 0.0 0.00 0.00 0.00 92 1020.0
20260503060137 35 22 0.0 0.0 0.00 0.00 0.00 91 1020.3
20260503054236 35 22 0.0 0.0 0.00 0.00 0.00 90 1020.3
20260503053236 35 22 0.0 0.0 0.00 0.00 0.00 89 1020.5
20260503052335 36 22 0.0 0.0 0.00 0.00 0.00 90 1020.5
20260503050335 36 22 0.0 0.0 0.00 0.00 0.00 88 1020.6
20260503044435 36 22 0.0 0.0 0.00 0.00 0.00 85 1020.5
20260503043435 36 22 0.0 0.0 0.00 0.00 0.00 84 1020.6
20260503040436 37 22 0.0 0.0 0.00 0.00 0.00 81 1020.4
20260503034441 38 22 0.0 0.0 0.00 0.00 0.00 81 1020.4
20260503033441 38 22 0.0 0.0 0.00 0.00 0.00 79 1020.5
20260503031539 39 22 0.0 0.0 0.00 0.00 0.00 76 1020.5
20260503030541 40 22 0.0 0.0 0.00 0.00 0.00 75 1020.7
20260503025541 40 22 0.0 0.0 0.00 0.00 0.00 74 1020.7
20260503024542 40 22 0.0 0.0 0.00 0.00 0.00 75 1020.5
20260503023640 41 22 0.0 0.0 0.00 0.00 0.00 73 1020.6
20260503022739 41 22 0.0 0.0 0.00 0.00 0.00 72 1020.6
20260503021743 42 22 0.0 0.0 0.00 0.00 0.00 69 1020.5
20260503020741 43 22 0.0 0.0 0.00 0.00 0.00 66 1020.4
20260503013939 46 22 0.0 0.0 0.00 0.00 0.00 56 1020.2